Location: Unspecified
(0.0000°N, 0.0000°E)
Time: 07:56:58
(UTC+00:00)

Tiros 1 - Visible Passes

Search period start: 01 September 2015 00:00
Search period end: 11 September 2015 00:00
Orbit: 631 x 666 km, 48.4° (Epoch: 01 September)

Date Brightness Start Highest point End Pass type
(mag) Time Alt. Az. Time Alt. Az. Time Alt. Az.
02 Sep 8.5 19:33:22 10° SSW 19:35:42 26° S 19:35:42 26° S visible
03 Sep 9.1 18:20:36 10° SSE 18:21:57 11° SE 18:23:36 10° ESE visible
03 Sep 8.4 19:59:40 10° SW 20:02:39 36° WSW 20:02:39 36° WSW visible
04 Sep 7.7 18:44:22 10° SSW 18:48:37 37° SE 18:51:59 15° ENE visible
04 Sep 9.8 20:27:47 10° W 20:29:48 16° WNW 20:29:48 16° WNW visible
05 Sep 7.6 19:10:31 10° SW 19:15:05 61° NW 19:19:15 12° NNE visible
06 Sep 9.7 19:38:25 10° W 19:41:39 18° NW 19:44:45 10° N visible
07 Sep 7.5 18:21:23 10° SW 18:25:59 68° NW 18:30:35 10° NNE visible
08 Sep 9.9 04:53:54 10° N 04:57:03 18° NE 05:00:23 10° E visible
08 Sep 9.7 18:49:05 10° W 18:52:32 20° NW 18:55:50 10° N visible
09 Sep 7.9 05:18:56 10° NNW 05:23:39 58° NE 05:28:22 10° SE visible
10 Sep 9.9 04:05:02 10° NNE 04:07:55 16° NE 04:11:00 10° E visible
